�N����,����,�~����,�C��,���x,�C��,����,���ϕ���,�ő�u�ԕ���,�ő厞����,���˗�,�I�_���x,�n�����x,�ő啗���N��,DTYPE
"18/04/10","00:10",0.0,8.2,92.1,1014.9,307.8,2.2,3.1,309.4,0.00,7.0,10.6,"00:09:12",1
"18/04/10","00:20",0.0,8.2,91.8,1015.2,307.8,2.3,3.5,304.1,0.00,7.0,10.6,"00:16:40",1
"18/04/10","00:30",0.0,8.0,91.3,1015.2,305.6,2.1,4.0,339.0,0.00,6.7,10.3,"00:20:56",1
"18/04/10","00:40",0.0,8.0,91.9,1015.2,292.0,1.8,2.6,331.7,0.00,6.8,10.5,"00:38:32",1
"18/04/10","00:50",0.0,8.4,92.0,1014.9,322.8,2.5,4.1,329.7,0.00,7.2,10.6,"00:43:20",1
"18/04/10","01:00",0.0,8.7,91.5,1015.2,327.0,3.4,5.7,332.3,0.00,7.4,10.5,"00:52:48",1
"18/04/10","01:10",0.0,8.7,91.0,1014.9,330.7,3.4,4.8,343.0,0.00,7.4,10.6,"01:01:12",1
"18/04/10","01:20",0.0,8.5,90.3,1014.9,326.7,3.4,4.7,340.6,0.00,7.0,10.2,"01:13:36",1
"18/04/10","01:30",0.0,8.4,90.3,1014.9,322.0,3.1,4.2,331.4,0.00,6.9,10.5,"01:27:28",1
"18/04/10","01:40",0.0,8.5,90.3,1015.4,324.9,3.6,5.6,328.0,0.00,7.0,10.5,"01:35:28",1
"18/04/10","01:50",0.0,8.5,90.2,1015.2,330.6,3.2,5.1,336.7,0.00,7.0,10.4,"01:40:02",1
"18/04/10","02:00",0.0,8.4,90.3,1015.2,333.1,3.2,4.3,338.5,0.00,6.9,10.4,"01:50:40",1
"18/04/10","02:10",0.0,8.2,90.6,1015.2,332.1,3.2,5.0,338.1,0.00,6.8,10.3,"02:05:36",1
"18/04/10","02:20",0.0,8.1,90.9,1015.4,331.1,2.8,4.7,338.9,0.00,6.7,10.4,"02:10:32",1
"18/04/10","02:30",0.0,7.7,91.1,1014.9,335.1,2.2,3.6,340.0,0.00,6.4,10.3,"02:24:40",1
"18/04/10","02:40",0.0,7.7,91.8,1015.2,324.6,2.3,3.6,321.1,0.00,6.5,10.1,"02:33:04",1
"18/04/10","02:50",0.0,7.6,92.0,1015.2,329.3,2.2,5.1,339.3,0.00,6.4,10.4,"02:47:20",1
"18/04/10","03:00",0.0,7.3,92.4,1015.2,320.2,2.5,3.7,324.9,0.00,6.2,10.2,"02:56:08",1
"18/04/10","03:10",0.0,7.3,92.8,1015.4,306.1,2.3,3.1,325.1,0.00,6.3,10.2,"03:03:36",1
"18/04/10","03:20",0.0,7.4,93.1,1015.2,306.5,2.5,4.1,322.9,0.00,6.4,10.2,"03:19:52",1
"18/04/10","03:30",0.0,7.2,92.6,1015.2,322.8,2.6,4.4,322.5,0.00,6.1,10.2,"03:20:16",1
"18/04/10","03:40",0.0,7.0,93.0,1015.4,326.8,2.3,3.3,329.2,0.00,6.0,10.1,"03:39:44",1
"18/04/10","03:50",0.0,6.9,93.4,1015.4,326.4,2.6,4.0,333.2,0.00,5.9,10.3,"03:44:24",1
"18/04/10","04:00",0.0,6.7,93.1,1015.4,319.3,2.7,3.6,318.7,0.00,5.7,10.0,"03:58:08",1
"18/04/10","04:10",0.0,6.6,93.6,1015.2,319.6,2.7,3.6,313.4,0.00,5.7,10.3,"04:08:00",1
"18/04/10","04:20",0.0,6.6,93.6,1015.4,325.0,3.4,5.7,323.7,0.00,5.7,10.1,"04:12:16",1
"18/04/10","04:30",0.0,6.4,93.6,1014.9,298.4,2.5,4.4,328.6,0.00,5.5,10.0,"04:20:40",1
"18/04/10","04:40",0.0,6.0,94.1,1015.6,293.2,1.7,2.4,306.9,0.00,5.2,9.9,"04:33:44",1
"18/04/10","04:50",0.0,5.9,94.8,1014.9,289.5,1.6,2.4,312.1,0.00,5.2,9.8,"04:48:32",1
"18/04/10","05:00",0.0,5.6,94.6,1015.4,301.4,1.6,2.4,308.1,0.00,4.8,9.9,"04:56:48",1
"18/04/10","05:10",0.0,5.4,95.1,1015.6,323.3,2.0,2.7,327.5,0.00,4.7,9.6,"05:04:16",1
"18/04/10","05:20",0.0,5.4,95.3,1015.4,303.0,2.1,3.2,305.7,0.00,4.7,9.8,"05:19:04",1
"18/04/10","05:30",0.0,5.3,95.4,1015.4,300.8,2.2,3.2,315.2,0.00,4.7,9.7,"05:24:48",1
"18/04/10","05:40",0.0,5.3,95.8,1015.6,292.2,1.8,2.9,309.6,0.00,4.7,9.4,"05:31:36",1
"18/04/10","05:50",0.0,5.3,96.0,1015.4,293.2,2.1,2.6,292.9,0.00,4.8,9.6,"05:48:32",1
"18/04/10","06:00",0.0,5.3,96.1,1015.9,298.4,2.2,3.6,317.7,0.00,4.8,9.7,"05:53:04",1
"18/04/10","06:10",0.0,5.5,96.3,1016.4,299.3,2.2,3.5,312.8,0.00,5.0,9.6,"06:05:12",1
"18/04/10","06:20",0.0,5.9,96.4,1016.4,303.2,1.8,3.6,327.8,0.00,5.4,9.6,"06:15:04",1
"18/04/10","06:30",0.0,6.1,95.8,1016.4,296.8,1.7,2.9,310.2,0.01,5.5,9.6,"06:24:48",1
"18/04/10","06:40",0.0,6.4,95.6,1016.6,293.6,2.1,3.4,310.6,0.02,5.8,9.4,"06:34:24",1
"18/04/10","06:50",0.0,6.9,95.3,1016.6,328.8,1.2,2.9,322.8,0.03,6.2,9.4,"06:41:28",1
"18/04/10","07:00",0.0,6.8,94.9,1016.4,329.5,1.6,2.5,323.6,0.04,6.1,9.5,"06:50:24",1
"18/04/10","07:10",0.0,7.7,93.3,1016.8,315.7,1.1,2.0,325.5,0.06,6.7,9.7,"07:02:16",1
"18/04/10","07:20",0.0,8.4,90.7,1017.1,291.5,1.1,2.5,304.4,0.08,7.0,9.6,"07:19:36",1
"18/04/10","07:30",0.0,8.7,89.5,1017.3,284.4,1.6,2.7,316.5,0.10,7.1,9.6,"07:25:12",1
"18/04/10","07:40",0.0,9.5,89.3,1017.8,287.6,1.6,2.7,305.5,0.13,7.9,9.7,"07:36:40",1
"18/04/10","07:50",0.0,9.9,87.0,1017.8,301.5,1.7,2.9,316.1,0.15,7.9,9.6,"07:41:20",1
"18/04/10","08:00",0.0,10.2,86.7,1018.2,277.3,1.3,2.2,304.4,0.18,8.1,10.0,"07:55:20",1
"18/04/10","08:10",0.0,10.8,83.4,1018.5,298.3,1.5,2.6,313.3,0.20,8.1,10.1,"08:04:08",1
"18/04/10","08:20",0.0,11.8,80.4,1018.2,321.7,0.7,1.4,328.2,0.23,8.6,10.2,"08:14:16",1
"18/04/10","08:30",0.0,12.0,78.6,1018.2,330.2,0.7,1.4,332.5,0.26,8.4,10.3,"08:26:16",1
"18/04/10","08:40",0.0,12.4,78.6,1018.2,151.6,0.5,1.0,156.0,0.28,8.8,10.5,"08:38:00",1
"18/04/10","08:50",0.0,12.8,77.9,1018.2,240.4,0.7,1.4,169.8,0.31,9.1,10.9,"08:41:12",1
"18/04/10","09:00",0.0,13.4,74.6,1018.0,55.7,0.7,1.7,164.1,0.33,9.0,10.8,"08:58:08",1
"18/04/10","09:10",0.0,13.3,74.1,1018.0,225.4,1.1,3.2,197.3,0.36,8.8,11.2,"09:04:48",1
"18/04/10","09:20",0.0,13.8,73.3,1018.0,188.0,0.8,2.1,136.1,0.38,9.1,11.4,"09:14:24",1
"18/04/10","09:30",0.0,13.8,68.6,1017.5,193.0,1.0,2.6,175.4,0.40,8.2,11.5,"09:20:16",1
"18/04/10","09:40",0.0,14.1,67.9,1017.3,183.1,0.8,2.2,202.8,0.41,8.3,11.7,"09:34:16",1
"18/04/10","09:50",0.0,14.7,66.8,1017.1,100.8,0.8,2.4,127.4,0.43,8.6,11.9,"09:40:08",1
"18/04/10","10:00",0.0,15.0,66.1,1017.1,195.7,1.0,2.0,195.6,0.45,8.8,12.2,"09:52:00",1
"18/04/10","10:10",0.0,15.4,65.4,1017.1,211.8,1.1,2.4,227.0,0.47,9.0,12.3,"10:07:28",1
"18/04/10","10:20",0.0,15.6,60.9,1016.8,170.7,1.1,3.3,134.5,0.49,8.1,12.6,"10:11:44",1
"18/04/10","10:30",0.0,15.8,57.7,1016.6,161.7,1.3,2.9,225.7,0.51,7.5,12.9,"10:25:44",1
"18/04/10","10:40",0.0,16.0,51.0,1016.6,189.0,0.8,2.5,129.7,0.51,5.9,13.4,"10:34:16",1
"18/04/10","10:50",0.0,16.8,43.0,1016.1,204.0,1.0,2.0,172.9,0.53,4.2,13.5,"10:45:20",1
"18/04/10","11:00",0.0,16.9,44.1,1016.1,213.0,1.0,2.6,231.8,0.54,4.7,13.8,"10:58:24",1
"18/04/10","11:10",0.0,17.5,43.0,1016.1,27.9,0.7,1.6,168.6,0.55,4.8,13.9,"11:00:08",1
"18/04/10","11:20",0.0,18.0,36.8,1015.6,180.9,1.5,3.3,227.9,0.56,3.1,14.2,"11:19:44",1
"18/04/10","11:30",0.0,17.9,30.6,1015.6,185.5,1.8,3.7,225.3,0.57,0.4,14.4,"11:23:20",1
"18/04/10","11:40",0.0,17.7,35.4,1015.4,125.1,1.8,3.6,118.4,0.57,2.3,14.6,"11:34:24",1
"18/04/10","11:50",0.0,18.4,35.8,1015.2,133.4,1.3,3.4,56.5,0.58,3.0,15.0,"11:44:48",1
"18/04/10","12:00",0.0,18.3,35.0,1015.2,154.8,1.5,3.5,155.5,0.58,2.6,15.0,"11:57:52",1
"18/04/10","12:10",0.0,18.8,34.6,1014.9,155.5,1.6,4.3,135.5,0.57,2.9,15.5,"12:09:28",1
"18/04/10","12:20",0.0,18.6,36.9,1014.7,148.0,1.3,3.5,131.5,0.57,3.6,15.6,"12:15:20",1
"18/04/10","12:30",0.0,19.1,37.1,1014.7,145.0,1.7,3.3,191.9,0.57,4.2,15.7,"12:29:52",1
"18/04/10","12:40",0.0,19.6,41.5,1014.5,177.1,1.5,4.3,162.2,0.57,6.2,16.0,"12:32:16",1
"18/04/10","12:50",0.0,19.6,32.2,1014.0,157.8,1.6,5.2,125.1,0.57,2.6,16.2,"12:43:28",1
"18/04/10","13:00",0.0,20.1,39.1,1014.0,155.0,1.1,2.8,112.4,0.56,5.8,16.5,"12:54:32",1
"18/04/10","13:10",0.0,19.8,31.7,1014.0,131.6,2.1,5.2,135.9,0.56,2.6,16.7,"13:05:28",1
"18/04/10","13:20",0.0,20.1,32.0,1013.8,169.3,2.0,4.4,224.4,0.55,2.9,16.8,"13:18:32",1
"18/04/10","13:30",0.0,20.5,34.7,1013.5,130.7,2.2,5.0,109.8,0.55,4.4,17.0,"13:22:56",1
"18/04/10","13:40",0.0,20.7,35.2,1013.3,153.1,1.8,4.3,189.1,0.53,4.8,17.1,"13:37:52",1
"18/04/10","13:50",0.0,21.0,31.3,1013.0,74.3,1.3,4.1,122.6,0.47,3.4,17.1,"13:43:04",1
"18/04/10","14:00",0.0,20.9,35.0,1012.8,121.4,1.7,3.7,118.9,0.48,4.9,17.2,"13:55:36",1
"18/04/10","14:10",0.0,20.9,33.0,1012.8,130.9,2.0,4.0,126.2,0.49,4.1,17.4,"14:07:04",1
"18/04/10","14:20",0.0,20.8,30.3,1012.6,156.0,1.6,4.0,209.2,0.46,2.8,17.6,"14:16:16",1
"18/04/10","14:30",0.0,21.5,32.4,1012.6,211.7,1.1,4.1,177.0,0.45,4.3,17.3,"14:20:40",1
"18/04/10","14:40",0.0,21.6,32.8,1012.1,348.4,1.1,4.2,170.9,0.43,4.6,17.7,"14:39:28",1
"18/04/10","14:50",0.0,21.3,32.9,1011.9,206.0,2.3,5.5,222.7,0.40,4.4,17.5,"14:43:36",1
"18/04/10","15:00",0.0,21.8,33.0,1011.6,187.8,1.7,6.0,215.6,0.39,4.9,17.5,"14:58:24",1
"18/04/10","15:10",0.0,22.1,31.7,1011.9,103.6,1.5,3.3,121.4,0.37,4.6,17.6,"15:01:04",1
"18/04/10","15:20",0.0,21.7,31.2,1011.6,119.7,2.0,4.3,112.0,0.35,4.0,17.6,"15:10:48",1
"18/04/10","15:30",0.0,21.6,29.2,1011.9,154.5,3.5,6.0,156.7,0.33,3.0,17.7,"15:24:48",1
"18/04/10","15:40",0.0,21.9,31.8,1011.6,183.8,2.8,5.0,140.3,0.30,4.4,17.7,"15:30:24",1
"18/04/10","15:50",0.0,21.9,27.1,1011.4,165.5,2.3,3.9,139.3,0.28,2.2,17.6,"15:41:28",1
"18/04/10","16:00",0.0,21.7,29.5,1011.4,173.9,2.6,5.1,147.6,0.25,3.2,17.5,"15:51:36",1
"18/04/10","16:10",0.0,21.2,28.5,1011.4,199.4,2.3,3.7,224.2,0.19,2.3,17.4,"16:04:24",1
"18/04/10","16:20",0.0,21.5,29.6,1011.2,215.1,2.1,4.2,229.4,0.18,3.1,17.3,"16:14:32",1
"18/04/10","16:30",0.0,21.4,27.4,1011.4,177.8,2.1,3.7,128.8,0.14,1.9,17.1,"16:20:02",1
"18/04/10","16:40",0.0,21.6,26.4,1011.2,187.3,2.0,4.0,194.8,0.18,1.5,17.1,"16:30:56",1
"18/04/10","16:50",0.0,21.6,25.8,1011.4,195.9,1.8,3.6,195.0,0.14,1.2,17.0,"16:48:24",1
"18/04/10","17:00",0.0,21.4,23.6,1011.2,189.5,1.7,4.0,225.9,0.11,-0.2,17.2,"16:56:56",1
"18/04/10","17:10",0.0,21.1,24.1,1011.6,195.8,1.8,3.1,167.3,0.09,-0.1,16.8,"17:02:32",1
"18/04/10","17:20",0.0,21.0,24.3,1011.6,216.2,1.5,2.7,221.5,0.07,-0.1,16.8,"17:18:08",1
"18/04/10","17:30",0.0,20.6,26.1,1012.1,216.1,1.7,3.1,230.9,0.05,0.5,16.4,"17:20:08",1
"18/04/10","17:40",0.0,20.0,28.2,1011.6,210.0,1.6,2.7,211.5,0.02,1.1,16.4,"17:37:12",1
"18/04/10","17:50",0.0,19.6,28.5,1011.4,206.3,1.7,3.1,207.9,0.01,0.9,16.1,"17:48:56",1
"18/04/10","18:00",0.0,19.2,33.5,1011.4,210.7,2.0,3.5,194.6,0.01,2.8,16.3,"17:58:16",1
"18/04/10","18:10",0.0,18.9,36.4,1011.4,243.8,1.6,2.7,194.7,0.00,3.7,16.1,"18:01:12",1
"18/04/10","18:20",0.0,18.0,41.5,1011.6,318.7,1.6,2.6,318.7,0.00,4.8,16.0,"18:15:28",1
"18/04/10","18:30",0.0,16.8,46.0,1011.6,340.7,1.3,1.9,344.8,0.00,5.2,15.9,"18:25:44",1
"18/04/10","18:40",0.0,16.4,47.3,1011.9,357.9,1.2,2.1,354.4,0.00,5.2,15.6,"18:36:40",1
"18/04/10","18:50",0.0,16.0,49.6,1011.9,337.5,1.6,2.4,343.9,0.00,5.5,15.5,"18:42:16",1
"18/04/10","19:00",0.0,15.4,52.4,1011.9,319.7,1.3,2.6,343.2,0.00,5.8,15.2,"18:53:20",1
"18/04/10","19:10",0.0,15.9,57.4,1011.9,178.6,0.7,2.0,312.8,0.00,7.5,15.3,"19:00:16",1
"18/04/10","19:20",0.0,15.4,56.4,1011.9,345.0,1.5,2.5,342.8,0.00,6.8,15.2,"19:13:28",1
"18/04/10","19:30",0.0,14.8,60.0,1012.1,336.7,1.7,2.7,342.9,0.00,7.2,15.1,"19:25:44",1
"18/04/10","19:40",0.0,13.8,64.0,1012.1,325.6,1.3,2.2,332.9,0.00,7.2,15.0,"19:30:16",1
"18/04/10","19:50",0.0,13.4,66.1,1011.9,322.1,1.3,2.0,332.5,0.00,7.2,15.0,"19:42:40",1
"18/04/10","20:00",0.0,13.1,66.7,1012.1,303.2,1.2,1.6,312.0,0.00,7.1,14.8,"19:56:02",1
"18/04/10","20:10",0.0,12.8,68.3,1011.6,291.1,1.2,1.7,299.6,0.00,7.2,14.7,"20:08:56",1
"18/04/10","20:20",0.0,12.8,68.8,1011.9,308.1,1.6,2.2,319.2,0.00,7.3,14.3,"20:18:12",1
"18/04/10","20:30",0.0,12.7,69.2,1011.6,311.7,1.8,2.2,317.6,0.00,7.2,14.4,"20:24:32",1
"18/04/10","20:40",0.0,12.5,70.3,1012.1,308.8,1.7,2.5,321.8,0.00,7.3,14.3,"20:33:50",1
"18/04/10","20:50",0.0,12.3,71.3,1012.3,312.0,1.8,2.7,329.9,0.00,7.3,13.9,"20:45:58",1
"18/04/10","21:00",0.0,12.1,73.1,1012.3,317.9,1.6,2.1,331.0,0.00,7.5,13.9,"20:57:18",1
"18/04/10","21:10",0.0,11.8,75.1,1012.1,289.3,1.1,1.6,291.1,0.00,7.6,14.2,"21:08:16",1
"18/04/10","21:20",0.0,11.9,76.3,1012.3,316.1,1.3,1.9,332.8,0.00,7.9,13.7,"21:19:24",1
"18/04/10","21:30",0.0,11.5,76.5,1012.1,318.1,1.8,2.1,321.0,0.00,7.6,13.7,"21:25:06",1
"18/04/10","21:40",0.0,11.2,79.7,1011.9,306.4,1.5,2.0,323.5,0.00,7.9,13.8,"21:32:42",1
"18/04/10","21:50",0.0,11.3,80.9,1012.1,301.4,1.6,2.1,303.2,0.00,8.2,13.5,"21:42:12",1
"18/04/10","22:00",0.0,11.4,81.0,1012.3,301.3,1.6,2.2,313.1,0.00,8.3,13.7,"21:53:50",1
"18/04/10","22:10",0.0,11.4,80.6,1011.9,311.2,1.5,2.0,320.7,0.00,8.2,13.3,"22:03:12",1
"18/04/10","22:20",0.0,11.0,80.9,1011.6,325.6,1.7,2.6,323.5,0.00,7.9,13.4,"22:16:00",1
"18/04/10","22:30",0.0,10.6,83.3,1011.6,329.4,1.6,2.2,320.9,0.00,7.9,13.0,"22:22:44",1
"18/04/10","22:40",0.0,10.2,85.1,1011.9,299.1,1.5,1.8,318.0,0.00,7.9,13.1,"22:39:46",1
"18/04/10","22:50",0.0,10.3,85.8,1012.1,302.7,1.5,2.4,325.6,0.00,8.1,13.1,"22:47:46",1
"18/04/10","23:00",0.0,10.4,86.2,1012.1,324.5,1.8,2.5,319.8,0.00,8.2,12.9,"22:56:08",1
"18/04/10","23:10",0.0,10.1,86.1,1012.1,323.0,1.7,2.4,322.0,0.00,7.9,12.9,"23:03:32",1
"18/04/10","23:20",0.0,9.7,86.9,1011.6,295.9,0.7,1.3,325.0,0.00,7.7,12.8,"23:10:24",1
"18/04/10","23:30",0.0,9.7,88.4,1011.6,313.7,1.5,2.2,324.3,0.00,7.9,12.5,"23:25:00",1
"18/04/10","23:40",0.0,9.6,88.4,1011.6,307.1,1.0,2.1,316.0,0.00,7.8,12.6,"23:38:16",1
"18/04/10","23:50",0.0,9.4,88.5,1011.9,327.6,2.0,2.9,337.6,0.00,7.6,12.7,"23:47:22",1
"18/04/10","24:00",0.0,9.6,90.3,1011.6,320.1,1.8,3.2,325.5,0.00,8.1,12.5,"23:54:08",1
